Flag for U.S.A. Weather past 2 weeks in Chula Vista, California, U.S.A.

Now
80 °F

Sunny.


Feels Like: 82 °F
Forecast: 65 / 83 °F
Wind: 9 mph from Northwest

Location: Brown Field Municipal Airport

Current Time: Aug 29, 2014 at 12:03:08 PM

Latest Report: Aug 29, 2014 at 10:53 AM


Visibility: 10 mi

Pressure: 29.87 "Hg

Humidity: 62%

Dew point: 66 °F

Location of Chula VistaLocation

Historic Weather in Chula Vista — Graph

°F

Chula Vista temperature yesterday

Maximum temperature yesterday: 90 °F (at 10:53 AM)
Minimum temperature yesterday: 67 °F (at 3:53 AM)
Average temperature yesterday: 77 °F

Past Weeks' High & Low Weather Summary

 TemperatureHumidityPressure
High90 °F (Aug 27, 12:53 PM)97% (Aug 18, 12:53 AM)30.02 "Hg (Aug 18, 12:53 AM)
Low59 °F (Aug 23, 5:53 AM)28% (Aug 28, 9:53 AM)29.81 "Hg (Aug 18, 4:53 PM)
Average72 °F70%29.92 "Hg
* Reported Aug 14 10:53 AM — Aug 29 10:53 AM, Chula Vista, Weather by CustomWeather, © 2014

Note: Actual official high and low records may vary slightly from our data, if they occured in-between our weather recording intervals... More about our weather records

Advertising

Chula Vista weather history for previous 24 hours

 ConditionsComfort  
Time TempWeatherWind HumidityBarometerVisibility
10:53 AM
Aug 29
80 °FSunny.9 mph62%29.87 "Hg10 mi
9:53 AM77 °FSunny.No wind64%29.88 "Hg10 mi
8:53 AM72 °FScattered clouds.3 mph81%29.89 "Hg10 mi
7:53 AM70 °FScattered clouds.3 mph84%29.88 "Hg9 mi
6:53 AM66 °FFog.No wind93%29.87 "Hg5 mi
5:53 AM66 °FClear.No wind90%29.86 "Hg8 mi
4:53 AM64 °FFog.No wind97%29.86 "Hg5 mi
3:53 AM65 °FClear.No wind91%29.86 "Hg10 mi
2:53 AM66 °FClear.No wind87%29.87 "Hg10 mi
1:53 AM68 °FClear.3 mph87%29.88 "Hg10 mi
12:53 AM66 °FClear.3 mph90%29.89 "Hg10 mi
11:53 PM
Aug 28
69 °FClear.No wind87%29.90 "Hg10 mi
10:53 PM69 °FClear.5 mph79%29.91 "Hg10 mi
9:53 PM68 °FClear.No wind78%29.91 "Hg10 mi
8:53 PM72 °FClear.3 mph68%29.90 "Hg10 mi
7:53 PM75 °FSunny.5 mph60%29.90 "Hg10 mi
6:53 PM79 °FSunny.8 mph48%29.90 "Hg10 mi
5:53 PM82 °FSunny.9 mph49%29.89 "Hg10 mi
4:53 PM83 °FSunny.7 mph48%29.90 "Hg10 mi
3:53 PM85 °FSunny.9 mph43%29.90 "Hg10 mi
2:53 PM86 °FSunny.13 mph42%29.91 "Hg10 mi
1:53 PM88 °FSunny.9 mph36%29.92 "Hg10 mi
12:53 PM87 °FSunny.12 mph35%29.93 "Hg10 mi
Weather by CustomWeather, © 2014

See weather overviewHow to use our weather pages